Flag for Australia Weather past 2 weeks in Alice Springs, Northern Territory, Australia

Now
72 °F

Passing clouds.


Feels Like: 76 °F
Forecast: 52 / 80 °F
Wind: 5 mph from East

Location: Alice Springs Aerodrome

Current Time: May 25, 2015 at 3:15:17 PM

Latest Report: May 25, 2015 at 2:30 PM


Visibility: N/A

Pressure: 30.18 "Hg

Humidity: 31%

Dew point: 39 °F

Location of Alice SpringsLocation

Historic Weather in Alice Springs — Graph

°F

Alice Springs temperature yesterday

Maximum temperature yesterday: 70 °F (at 1:30 PM)
Minimum temperature yesterday: 36 °F (at 6:00 AM)
Average temperature yesterday: 55 °F

Past Weeks' High & Low Weather Summary

 TemperatureHumidityPressure
High81 °F (May 18, 2:00 PM)93% (May 16, 6:30 AM)30.51 "Hg (May 16, 6:30 AM)
Low30 °F (May 16, 5:00 AM)11% (May 14, 3:31 PM)30.04 "Hg (May 18, 3:00 PM)
Average55 °F42%30.25 "Hg
* Reported May 10 2:30 PM — May 25 2:30 PM, Alice Springs, Weather by CustomWeather, © 2015

Note: Actual official high and low records may vary slightly from our data, if they occured in-between our weather recording intervals... More about our weather records

Advertising

Alice Springs weather history for previous 24 hours

 ConditionsComfort  
Time TempWeatherWind HumidityBarometerVisibility
2:30 PM
Mon, May 25
72 °FPassing clouds.5 mph31%30.18 "HgN/A
2:00 PM70 °FPassing clouds.6 mph33%30.18 "HgN/A
1:30 PM70 °FPassing clouds.8 mph33%30.18 "HgN/A
1:00 PM70 °FPassing clouds.8 mph33%30.21 "HgN/A
12:30 PM70 °FSunny.9 mph33%30.21 "Hg10 mi
12:00 PM68 °FSunny.8 mph38%30.24 "Hg10 mi
11:30 AM66 °FSunny.8 mph37%30.24 "Hg10 mi
11:00 AM66 °FSunny.8 mph37%30.24 "Hg10 mi
10:30 AM64 °FSunny.7 mph40%30.27 "Hg10 mi
10:00 AM64 °FSunny.6 mph40%30.27 "Hg10 mi
9:30 AM61 °FSunny.1 mph42%30.27 "Hg10 mi
9:00 AM61 °FSunny.1 mph39%30.24 "Hg10 mi
8:30 AM55 °FSunny.No wind47%30.24 "Hg10 mi
8:00 AM52 °FSunny.1 mph50%30.24 "Hg10 mi
7:30 AM48 °FSunny.6 mph58%30.27 "Hg10 mi
7:00 AM46 °FSunny.No wind66%30.24 "Hg10 mi
6:30 AM48 °FClear.5 mph62%30.24 "Hg10 mi
6:00 AM46 °FClear.6 mph66%30.21 "Hg10 mi
5:30 AM48 °FClear.6 mph58%30.21 "HgN/A
5:00 AM46 °FClear.6 mph62%30.21 "HgN/A
4:30 AM46 °FClear.8 mph57%30.21 "HgN/A
4:00 AM48 °FClear.5 mph62%30.21 "HgN/A
3:30 AM48 °FClear.No wind54%30.21 "HgN/A
3:00 AM52 °FClear.6 mph50%30.21 "HgN/A
2:30 AM52 °FClear.5 mph54%30.21 "HgN/A
2:00 AM52 °FClear.3 mph54%30.24 "HgN/A
1:30 AM54 °FClear.3 mph54%30.24 "HgN/A
1:00 AM54 °FClear.5 mph51%30.24 "HgN/A
12:30 AM57 °FClear.5 mph44%30.24 "HgN/A
12:00 AM57 °FClear.5 mph44%30.24 "HgN/A
11:30 PM
Sun, May 24
59 °FClear.6 mph39%30.24 "HgN/A
11:00 PM57 °FClear.5 mph44%30.24 "HgN/A
10:30 PM57 °FClear.6 mph48%30.24 "HgN/A
10:00 PM57 °FClear.5 mph48%30.24 "HgN/A
9:30 PM57 °FClear.No wind48%30.24 "HgN/A
9:00 PM59 °FClear.3 mph42%30.24 "HgN/A
8:30 PM61 °FClear.6 mph42%30.24 "HgN/A
8:00 PM59 °FClear.6 mph39%30.21 "HgN/A
7:30 PM61 °FClear.6 mph36%30.21 "HgN/A
7:00 PM63 °FClear.6 mph32%30.21 "HgN/A
6:30 PM64 °FClear.6 mph30%30.18 "HgN/A
6:00 PM64 °FClear.6 mph30%30.18 "HgN/A
5:30 PM68 °FClear.8 mph24%30.15 "HgN/A
5:00 PM70 °FSunny.8 mph23%30.18 "HgN/A
4:30 PM70 °FSunny.7 mph23%30.15 "Hg10 mi
4:00 PM70 °FSunny.7 mph23%30.15 "Hg10 mi
3:30 PM70 °FSunny.8 mph23%30.15 "Hg10 mi
3:00 PM70 °FSunny.7 mph33%30.15 "Hg10 mi
Weather by CustomWeather, © 2015

See weather overviewHow to use our weather pages